Location: Asheville, NC
(35.6000°N, 82.5500°W)
Time: 20:04:44
(UTC-04:00)

AO-7 - Pass Details

Date: 15 March 2018
Orbit: 1440 x 1458 km, 101.7° (Epoch: 24 June)

Event Time Altitude Azimuth Distance (km) Brightness Sun altitude
Rises 04:07:15 0° 26° (NNE) 4,541 ? -42.1°
Reaches altitude 10° 04:10:25 10° 36° (NE) 3,558 ? -41.6°
Maximum altitude 04:17:44 34° 98° (E) 2,200 ? -40.3°
Enters shadow 04:21:20 24° 140° (SE) 2,597 ? -39.7°
